TimeCST,TemperatureF,Dew PointF,Humidity,Sea Level PressureIn,VisibilityMPH,Wind Direction,Wind SpeedMPH,Gust SpeedMPH,PrecipitationIn,Events,Conditions,WindDirDegrees,DateUTC
12:15 AM,8.6,1.4,73,29.73,10.0,WNW,19.6,26.5,N/A,,Overcast,300,2013-01-31 06:15:00
12:35 AM,6.8,1.4,79,29.74,7.0,WNW,19.6,23.0,N/A,,Overcast,300,2013-01-31 06:35:00
12:55 AM,6.8,1.4,79,29.74,5.0,WNW,20.7,26.5,N/A,,Haze,300,2013-01-31 06:55:00
1:15 AM,6.8,1.4,79,29.75,5.0,NW,18.4,28.8,N/A,,Haze,310,2013-01-31 07:15:00
1:36 AM,6.8,-0.4,72,29.75,5.0,WNW,15.0,-,N/A,,Haze,300,2013-01-31 07:36:00
1:55 AM,5.0,-0.4,78,29.76,5.0,WNW,21.9,28.8,N/A,,Haze,300,2013-01-31 07:55:00
2:15 AM,5.0,-0.4,78,29.77,3.0,WNW,15.0,20.7,N/A,Snow,Light Snow,290,2013-01-31 08:15:00
2:35 AM,5.0,-0.4,78,29.77,7.0,WNW,12.7,-,N/A,,Overcast,300,2013-01-31 08:35:00
2:55 AM,3.2,-2.2,78,29.77,5.0,WNW,17.3,23.0,N/A,Snow,Light Snow,300,2013-01-31 08:55:00
3:16 AM,3.2,-2.2,78,29.77,7.0,WNW,16.1,24.2,N/A,,Overcast,300,2013-01-31 09:16:00
3:35 AM,3.2,-2.2,78,29.77,5.0,WNW,12.7,-,N/A,,Haze,300,2013-01-31 09:35:00
3:55 AM,3.2,-2.2,78,29.78,7.0,WNW,16.1,24.2,N/A,,Overcast,290,2013-01-31 09:55:00
4:14 AM,3.2,-4.0,72,29.78,7.0,WNW,17.3,25.3,N/A,,Overcast,300,2013-01-31 10:14:00
4:35 AM,3.2,-2.2,78,29.79,5.0,WNW,17.3,21.9,N/A,,Haze,290,2013-01-31 10:35:00
4:55 AM,1.4,-4.0,78,29.80,10.0,WNW,17.3,25.3,N/A,,Overcast,300,2013-01-31 10:55:00
5:15 AM,1.4,-4.0,78,29.81,7.0,WNW,20.7,24.2,N/A,,Overcast,290,2013-01-31 11:15:00
5:35 AM,1.4,-5.8,72,29.81,5.0,WNW,18.4,24.2,N/A,,Haze,290,2013-01-31 11:35:00
5:55 AM,1.4,-5.8,72,29.82,5.0,WNW,19.6,27.6,N/A,,Haze,300,2013-01-31 11:55:00
6:15 AM,1.4,-5.8,72,29.83,3.0,WNW,17.3,20.7,N/A,,Haze,290,2013-01-31 12:15:00
6:35 AM,-0.4,-5.8,78,29.83,5.0,WNW,18.4,29.9,N/A,,Haze,300,2013-01-31 12:35:00
6:55 AM,-0.4,-7.6,72,29.85,5.0,WNW,21.9,26.5,N/A,,Haze,300,2013-01-31 12:55:00
7:16 AM,-0.4,-7.6,72,29.86,4.0,WNW,18.4,26.5,N/A,,Haze,290,2013-01-31 13:16:00
7:35 AM,-0.4,-7.6,72,29.86,7.0,WNW,17.3,28.8,N/A,,Overcast,300,2013-01-31 13:35:00
7:56 AM,-0.4,-7.6,72,29.87,4.0,WNW,12.7,24.2,N/A,,Haze,300,2013-01-31 13:56:00
8:15 AM,-2.2,-9.4,71,29.88,7.0,WNW,20.7,28.8,N/A,,Scattered Clouds,300,2013-01-31 14:15:00
8:35 AM,-2.2,-9.4,71,29.89,5.0,NW,20.7,31.1,N/A,,Haze,310,2013-01-31 14:35:00
8:55 AM,-0.4,-9.4,66,29.90,7.0,WNW,21.9,31.1,N/A,,Clear,300,2013-01-31 14:55:00
9:35 AM,-0.4,-9.4,66,29.92,10.0,NW,17.3,32.2,N/A,,Clear,310,2013-01-31 15:35:00
9:55 AM,-0.4,-9.4,66,29.93,7.0,WNW,24.2,29.9,N/A,,Scattered Clouds,300,2013-01-31 15:55:00
10:15 AM,-0.4,-9.4,66,29.94,5.0,NW,20.7,29.9,N/A,,Haze,310,2013-01-31 16:15:00
10:35 AM,-0.4,-9.4,66,29.95,5.0,WNW,20.7,27.6,N/A,,Haze,300,2013-01-31 16:35:00
11:00 AM,-0.4,-9.4,66,29.97,7.0,WNW,18.4,28.8,N/A,,Scattered Clouds,300,2013-01-31 17:00:00
11:15 AM,-0.4,-9.4,66,29.97,7.0,WNW,24.2,32.2,N/A,,Scattered Clouds,300,2013-01-31 17:15:00
11:36 AM,-0.4,-9.4,66,29.98,5.0,NW,23.0,28.8,N/A,,Haze,310,2013-01-31 17:36:00
11:55 AM,-0.4,-11.2,60,29.98,7.0,WNW,24.2,29.9,N/A,,Clear,290,2013-01-31 17:55:00
12:15 PM,-0.4,-9.4,66,29.99,7.0,NW,23.0,31.1,N/A,,Clear,310,2013-01-31 18:15:00
12:36 PM,-0.4,-9.4,66,29.99,5.0,WNW,24.2,33.4,N/A,,Haze,300,2013-01-31 18:36:00
12:55 PM,-0.4,-9.4,66,30.00,7.0,WNW,19.6,31.1,N/A,,Clear,290,2013-01-31 18:55:00
1:15 PM,-0.4,-9.4,66,30.01,7.0,WNW,25.3,29.9,N/A,,Scattered Clouds,290,2013-01-31 19:15:00
1:36 PM,-0.4,-9.4,66,30.01,4.0,WNW,19.6,29.9,N/A,,Haze,290,2013-01-31 19:36:00
1:55 PM,-0.4,-9.4,66,30.02,7.0,WNW,21.9,31.1,N/A,,Scattered Clouds,300,2013-01-31 19:55:00
2:15 PM,-0.4,-9.4,66,30.02,5.0,WNW,18.4,29.9,N/A,,Haze,300,2013-01-31 20:15:00
2:36 PM,-0.4,-9.4,66,30.03,3.0,WNW,25.3,29.9,N/A,,Haze,290,2013-01-31 20:36:00
2:55 PM,-0.4,-9.4,66,30.04,7.0,WNW,20.7,33.4,N/A,,Mostly Cloudy,300,2013-01-31 20:55:00
3:16 PM,-0.4,-9.4,66,30.05,7.0,WNW,19.6,32.2,N/A,,Mostly Cloudy,300,2013-01-31 21:16:00
3:35 PM,-0.4,-9.4,66,30.06,5.0,NW,17.3,28.8,N/A,,Haze,310,2013-01-31 21:35:00
3:55 PM,-0.4,-9.4,66,30.07,5.0,WNW,21.9,34.5,N/A,,Haze,300,2013-01-31 21:55:00
4:16 PM,-0.4,-9.4,66,30.08,5.0,WNW,19.6,31.1,N/A,,Haze,300,2013-01-31 22:16:00
4:35 PM,-0.4,-9.4,66,30.09,5.0,WNW,18.4,29.9,N/A,,Haze,300,2013-01-31 22:35:00
4:55 PM,-2.2,-9.4,71,30.10,4.0,WNW,23.0,28.8,N/A,,Haze,300,2013-01-31 22:55:00
5:16 PM,-2.2,-9.4,71,30.11,4.0,WNW,20.7,32.2,N/A,,Haze,300,2013-01-31 23:16:00
5:35 PM,-2.2,-11.2,66,30.11,7.0,NW,17.3,32.2,N/A,,Scattered Clouds,310,2013-01-31 23:35:00
5:55 PM,-2.2,-11.2,66,30.12,10.0,WNW,23.0,31.1,N/A,,Clear,300,2013-01-31 23:55:00
6:16 PM,-4.0,-11.2,71,30.13,10.0,WNW,19.6,33.4,N/A,,Clear,300,2013-02-01 00:16:00
6:35 PM,-4.0,-11.2,71,30.14,10.0,WNW,23.0,29.9,N/A,,Clear,300,2013-02-01 00:35:00
6:55 PM,-4.0,-13.0,65,30.15,10.0,WNW,24.2,29.9,N/A,,Clear,300,2013-02-01 00:55:00
7:16 PM,-5.8,-13.0,71,30.16,10.0,WNW,20.7,27.6,N/A,,Clear,300,2013-02-01 01:16:00
7:35 PM,-5.8,-13.0,71,30.16,10.0,NW,19.6,25.3,N/A,,Clear,310,2013-02-01 01:35:00
7:55 PM,-5.8,-13.0,71,30.16,10.0,NW,19.6,27.6,N/A,,Clear,310,2013-02-01 01:55:00
8:16 PM,-5.8,-13.0,71,30.17,10.0,NW,19.6,28.8,N/A,,Clear,310,2013-02-01 02:16:00
8:35 PM,-5.8,-13.0,71,30.18,10.0,WNW,19.6,-,N/A,,Clear,300,2013-02-01 02:35:00
9:16 PM,-5.8,-13.0,71,30.20,10.0,WNW,16.1,21.9,N/A,,Clear,300,2013-02-01 03:16:00
9:35 PM,-5.8,-14.8,65,30.20,10.0,NW,18.4,26.5,N/A,,Clear,310,2013-02-01 03:35:00
9:55 PM,-7.6,-14.8,71,30.21,10.0,WNW,19.6,28.8,N/A,,Clear,290,2013-02-01 03:55:00
10:16 PM,-7.6,-14.8,71,30.21,10.0,WNW,17.3,20.7,N/A,,Clear,300,2013-02-01 04:16:00
10:35 PM,-7.6,-14.8,71,30.21,10.0,WNW,18.4,26.5,N/A,,Clear,300,2013-02-01 04:35:00
10:55 PM,-7.6,-14.8,71,30.22,10.0,WNW,19.6,29.9,N/A,,Clear,300,2013-02-01 04:55:00
11:16 PM,-7.6,-14.8,71,30.22,10.0,WNW,12.7,21.9,N/A,,Clear,300,2013-02-01 05:16:00
11:35 PM,-7.6,-14.8,71,30.23,10.0,WNW,18.4,24.2,N/A,,Clear,290,2013-02-01 05:35:00
11:55 PM,-7.6,-14.8,71,30.24,10.0,WNW,12.7,24.2,N/A,,Clear,300,2013-02-01 05:55:00